Flag for U.S.A. Weather past 2 weeks in Metairie, Louisiana, U.S.A.

Now
63 °F

Light rain. Overcast.


Feels Like: 63 °F
Forecast: 55 / 60 °F
Wind: 7 mph from East

Location: New Orleans International Airport

Current Time: Dec 18, 2014 at 6:53:18 PM

Latest Report: Dec 18, 2014 at 5:53 PM


Visibility: 8 mi

Pressure: 30.11 "Hg

Humidity: 78%

Dew point: 56 °F

Location of MetairieLocation

Historic Weather in Metairie — Graph

°F

Metairie temperature yesterday

Maximum temperature yesterday: 59 °F (at 1:53 PM)
Minimum temperature yesterday: 46 °F (at 6:53 AM)
Average temperature yesterday: 52 °F

Past Weeks' High & Low Weather Summary

 TemperatureHumidityPressure
High80 °F (Dec 5, 11:53 AM)97% (Dec 4, 12:53 AM)30.38 "Hg (Dec 4, 12:53 AM)
Low45 °F (Dec 10, 6:53 AM)32% (Dec 16, 2:53 PM)29.98 "Hg (Dec 15, 2:53 PM)
Average59 °F70%30.21 "Hg
* Reported Dec 3 5:53 PM — Dec 18 5:53 PM, Metairie, Weather by CustomWeather, © 2014

Note: Actual official high and low records may vary slightly from our data, if they occured in-between our weather recording intervals... More about our weather records

Advertising

Metairie weather history for previous 24 hours

 ConditionsComfort  
Time TempWeatherWind HumidityBarometerVisibility
5:53 PM
Dec 18
63 °FLight rain. Overcast.7 mph78%30.11 "Hg8 mi
4:53 PM64 °FMostly cloudy.6 mph70%30.10 "Hg10 mi
3:53 PM66 °FPartly sunny.9 mph68%30.08 "Hg10 mi
2:53 PM68 °FMore clouds than sun.7 mph61%30.10 "Hg10 mi
1:53 PM68 °FLow clouds.10 mph61%30.10 "Hg10 mi
12:53 PM67 °FMostly cloudy.12 mph61%30.11 "Hg10 mi
11:53 AM67 °FPartly sunny.8 mph59%30.14 "Hg10 mi
10:53 AM66 °FBroken clouds.8 mph61%30.18 "Hg10 mi
9:53 AM64 °FBroken clouds.9 mph61%30.20 "Hg10 mi
8:53 AM58 °FBroken clouds.8 mph75%30.19 "Hg10 mi
7:53 AM55 °FPartly sunny.7 mph77%30.18 "Hg10 mi
6:53 AM53 °FPartly sunny.7 mph80%30.17 "Hg10 mi
5:53 AM52 °FPassing clouds.5 mph83%30.16 "Hg10 mi
4:53 AM52 °FPassing clouds.5 mph80%30.16 "Hg10 mi
3:53 AM50 °FPassing clouds.No wind80%30.18 "Hg10 mi
2:53 AM50 °FPassing clouds.No wind77%30.18 "Hg10 mi
1:53 AM50 °FPassing clouds.No wind71%30.17 "Hg10 mi
12:53 AM50 °FPassing clouds.3 mph71%30.17 "Hg10 mi
11:53 PM
Dec 17
52 °FPassing clouds.3 mph66%30.18 "Hg10 mi
10:53 PM51 °FPassing clouds.No wind71%30.20 "Hg10 mi
9:53 PM52 °FPassing clouds.No wind69%30.21 "Hg10 mi
8:53 PM52 °FOvercast.No wind66%30.21 "Hg10 mi
7:53 PM52 °FPassing clouds.5 mph66%30.21 "Hg10 mi
6:53 PM51 °FPassing clouds.No wind66%30.20 "Hg10 mi
Weather by CustomWeather, © 2014

See weather overviewHow to use our weather pages